SCP
0 0 0 0 0 0 0 0 0 0 0 0 0 0 0 0 0 0 0 0 0 0 0 0 0 0 0 0 0 0 0 0 0 0 0 0 0 0 0 0 0 0 0
0 0 0 0 0 0 0 0 0 0 0 0 0 0 0 0 0 0 0 0 0 0 0 0 0 0 0 0 0 0 0 0 0 0 0 0 0 0 0 0 0 0 0
0 0 0 0 0 0 0 0 0 0 0 0 0 0 0 0 0 0 0 0 0 0 0 0 0 0 0 0 0 0 0 0 0 0 0 0 0 0 0 0 0 0 0
0 0 0 0 0 0 0 0 0 0 0 0 0 0 0 0 0 0 0 0 0 0 0 0 0 0 0 0 0 0 0 0 0 0 0 0 0 0 0 0 0 0 0
0 0 0 0 0 0 0 0 0 0 0 0 0 0 0 0 0 0 0 0 0 0 0 0 0 0 0 0 0 0 0 0 0 0 0 0 0 0 0 0 0 0 0
0 0 0 0 0 0 0 0 0 0 0 0 0 0 0 0 0 0 0 0 0 0 0 0 0 0 0 -0 -0 0 0 0 0 0 0 0 0 0 0 0 0 0 0
0 0 0 0 0 0 0 0 0 0 0 0 0 0 0 0 0 0 0 0 0 0 0 0 0 0 0 -0 -0 0 0 0 0 0 0 0 0 0 0 0 0 0 0
0 0 0 0 0 0 0 0 0 0 0 0 0 0 0 0 0 0 0 0 0 0 0 0 0 0 0 0 0 0 0 0 0 0 0 0 0 0 0 0 0 0 0
0 0 0 0 0 0 0 0 0 0 0 0 0 0 0 0 0 0 0 0 0 0 0 0 0 0 0 0 0 0 0 0 0 0 0 0 0 0 0 0 0 0 0
0 0 0 0 0 0 0 0 0 0 0 0 0 0 0 0 0 0 0 0 0 0 0 0 0 0 0 0 0 0 0 0 0 0 0 0 0 0 0 0 0 0 0
0 0 0 0 0 0 0 0 0 0 0 0 0 0 0 0 0 0 0 0 0 0 0 0 0 0 0 0 0 0 0 0 0 0 0 0 0 0 0 0 0 0 0
1 1 0 0 0 0 0 0 0 0 0 0 0 0 0 0 0 0 0 0 0 0 0 0 0 0 0 0 0 0 0 0 0 0 0 0 0 0 0 0 0 0 0
1 1 1 0 0 0 0 0 0 0 0 0 0 0 0 0 0 0 0 0 0 0 0 0 0 0 0 0 0 0 0 0 0 0 0 0 0 0 0 0 0 0 0
1 1 1 1 0 0 0 0 0 0 0 0 0 0 0 0 0 0 0 0 0 0 0 0 0 0 0 0 0 0 0 0 0 0 0 0 0 0 0 0 0 0 0
1 1 1 1 1 1 0 0 0 0 0 0 0 0 0 0 0 0 0 0 0 0 0 0 0 0 0 0 0 0 0 0 0 0 0 0 0 0 0 0 0 0 0
1 1 1 1 1 1 1 0 0 0 0 0 0 0 0 0 0 0 0 0 0 0 0 0 0 0 0 0 0 0 0 0 0 0 0 0 0 0 0 0 0 0 0
1 1 1 1 1 1 1 1 1 1 0 0 0 0 0 0 0 0 0 0 0 0 0 0 0 0 0 0 0 0 0 0 0 0 0 0 0 0 0 0 0 0 0
2 2 2 1 1 1 1 1 1 1 1 1 1 0 0 0 0 0 0 0 0 0 0 0 0 0 0 0 0 0 0 0 0 0 0 0 0 0 0 0 0 0 0
2 2 2 2 2 1 1 1 1 1 1 1 1 1 0 0 0 0 0 0 0 0 0 0 0 0 0 0 0 0 0 0 0 0 0 0 0 0 0 0 0 0 0
2 2 2 2 2 2 1 1 1 1 1 1 1 1 1 0 0 0 0 0 0 0 0 0 0 0 0 0 0 0 0 0 0 0 0 0 0 0 0 0 0 0 0
3 3 2 2 2 2 1 1 1 1 1 1 1 1 1 1 0 0 0 0 0 0 0 0 0 0 0 0 0 0 0 0 0 0 0 0 0 0 0 0 0 0 0
3 3 2 2 2 2 2 1 1 1 1 1 1 1 1 1 0 0 0 0 0 0 0 0 0 0 0 0 0 0 0 0 0 0 0 0 0 0 0 0 0 0 0
3 3 2 2 2 2 2 1 1 1 1 1 1 1 1 1 1 1 1 1 0 0 0 0 0 0 0 0 0 0 0 0 0 0 0 0 0 0 0 0 0 0 0
2 2 2 2 2 2 2 2 1 1 1 1 1 1 1 1 1 1 1 1 1 0 0 0 0 0 0 0 0 0 0 0 0 0 0 0 0 0 0 0 0 0 0
2 2 2 2 2 2 2 2 1 1 1 1 1 1 1 1 1 1 1 1 1 1 0 0 0 0 0 0 0 0 0 0 0 0 0 0 0 0 0 0 0 0 0
2 2 2 2 2 2 2 2 1 1 1 1 1 1 1 1 1 1 1 1 1 1 1 1 1 0 0 0 0 0 0 0 0 0 0 0 0 0 0 0 0 0 0
Wind_Speed
16 15 15 14 14 14 15 15 15 15 15 15 16 16 17 17 17 17 17 17 16 16 16 16 15 16 16 16 16 16 16 16 15 16 15 15 13 12 11 13 15 12 16
19 17 16 15 15 15 15 15 14 14 15 15 15 16 16 16 16 16 16 16 16 16 16 16 16 15 15 15 14 14 14 14 14 15 15 14 13 12 12 13 14 11 15
19 17 16 15 15 15 15 15 15 14 14 15 15 15 15 15 16 16 16 16 16 16 16 16 16 16 15 14 13 12 11 11 11 12 12 10 11 13 15 15 16 15 14
19 16 16 17 16 15 15 14 14 14 14 14 14 14 14 15 15 15 15 15 15 16 16 16 16 15 14 12 11 10 9 8 7 7 6 9 9 13 14 14 14 14 13
18 17 17 17 16 16 15 15 14 14 14 14 14 14 14 15 15 15 15 15 15 15 15 15 14 14 13 11 9 7 5 4 2 4 9 9 8 12 14 14 14 13 13
19 18 17 17 16 15 15 15 14 14 14 14 13 13 13 14 14 14 15 14 14 14 14 14 13 13 12 10 7 5 3 2 2 7 9 10 8 12 14 14 14 13 13
20 18 17 17 16 15 14 14 14 13 13 13 13 13 13 14 14 14 14 14 14 14 13 13 13 12 10 8 5 3 2 2 3 8 9 9 8 11 13 13 13 13 13
20 18 16 16 16 15 14 14 13 13 13 13 13 13 13 13 13 13 13 13 13 13 12 12 12 10 9 6 3 2 3 3 7 11 10 9 10 12 13 13 13 12 12
20 18 15 14 14 14 14 13 13 12 13 12 12 12 13 13 13 13 13 13 12 12 11 11 10 9 7 4 1 1 3 3 4 7 11 8 11 12 12 12 12 12 12
18 17 15 14 13 12 12 13 13 12 12 12 12 12 12 13 13 13 12 11 11 11 10 10 9 8 6 3 1 2 4 3 5 10 8 9 12 12 12 12 11 11 11
15 14 15 14 13 12 12 13 12 12 11 11 10 12 11 8 9 8 12 11 10 10 9 9 8 7 5 4 3 2 2 1 7 8 7 11 12 11 11 11 11 10 11
15 14 13 13 13 12 11 9 8 8 8 6 6 7 5 4 5 9 11 10 9 9 8 7 7 6 4 3 4 4 1 3 6 7 8 12 11 11 10 10 10 9 10
13 13 13 11 9 11 8 8 5 5 5 5 7 6 4 5 6 7 5 6 6 7 5 6 6 4 4 1 2 2 2 3 5 7 8 11 11 11 10 10 9 9 9
13 13 13 11 7 7 8 6 6 6 5 5 5 5 4 2 3 4 3 4 4 3 2 3 3 3 3 3 1 2 4 4 5 6 6 11 10 10 10 9 9 8 8
11 12 12 10 7 6 6 5 6 5 5 6 4 3 4 3 3 4 2 2 3 3 3 1 2 2 3 3 2 4 5 6 7 7 6 10 10 9 9 9 8 8 8
13 13 12 10 8 6 5 3 4 5 4 5 4 4 4 4 3 3 3 2 1 2 2 1 3 3 2 2 2 3 3 4 6 8 7 7 9 9 9 9 9 8 8
14 13 12 10 9 7 6 5 4 5 5 4 5 5 4 4 4 4 3 2 2 3 2 1 2 2 2 2 2 3 3 3 4 6 7 5 5 7 9 9 9 8 8
13 12 12 12 11 8 6 4 3 4 5 4 5 5 4 5 5 3 3 3 2 2 2 2 0 1 1 1 2 2 2 2 3 4 5 6 5 6 7 10 9 8 8
12 12 11 10 12 10 7 5 3 3 4 4 5 5 5 5 5 3 2 3 3 2 2 2 2 1 1 1 2 2 2 2 2 3 4 5 5 6 5 8 9 8 9
13 12 11 10 11 10 7 5 3 4 3 3 4 5 6 5 5 3 3 4 3 3 2 2 2 1 1 1 1 2 2 3 2 2 3 4 5 6 7 7 6 6 9
13 12 11 10 10 8 7 7 6 5 4 4 4 7 7 5 5 4 3 4 2 2 3 3 2 2 1 1 1 1 0 2 3 2 2 3 4 4 5 6 5 4 5
13 13 12 11 11 10 7 5 5 5 4 4 4 6 7 6 6 6 3 4 3 2 3 2 2 1 1 2 1 1 0 0 1 3 3 3 4 4 5 6 6 5 5
15 14 13 12 11 10 9 6 5 4 3 4 5 5 7 7 6 4 5 4 4 4 4 3 3 3 2 2 2 2 1 1 1 1 2 3 3 3 3 4 5 5 6
14 14 12 12 11 11 10 9 9 7 6 6 5 5 7 7 6 5 5 4 4 3 4 5 5 3 3 2 2 1 1 1 1 1 1 2 4 4 4 4 4 5 4
15 14 12 12 11 11 10 9 9 7 6 5 5 6 7 6 6 6 5 5 4 3 4 4 3 3 2 3 2 2 2 2 2 2 2 2 2 3 4 3 3 4 5
14 14 13 13 12 11 11 10 9 9 8 8 7 7 6 5 5 7 7 5 5 4 4 3 3 4 2 2 2 1 1 2 2 2 2 3 3 3 4 4 4 4 4
Wind_Direction
114 116 116 115 114 111 106 101 98 95 92 90 89 88 88 89 90 92 92 93 95 97 98 98 97 98 98 97 96 95 95 98 97 98 97 95 94 94 99 107 102 96 100
117 118 117 115 115 113 110 106 102 98 96 93 91 91 91 92 92 94 95 95 95 96 97 97 98 101 101 100 100 102 104 106 108 110 105 94 90 89 90 92 92 100 102
117 121 118 115 115 114 112 109 105 102 99 97 94 93 93 94 94 95 97 98 99 98 98 97 97 99 100 102 104 107 111 117 127 133 121 102 93 90 90 93 99 103 103
121 123 117 117 115 114 113 110 108 107 103 100 98 97 97 97 97 97 97 100 102 102 101 100 99 99 101 105 109 113 118 127 143 152 112 96 96 96 96 99 102 102 103
121 116 117 119 116 115 113 111 110 108 106 103 102 100 99 99 100 100 99 100 101 103 103 102 102 104 105 108 113 116 117 118 130 98 88 89 89 99 100 102 103 102 104
121 119 121 120 118 117 116 114 112 110 109 107 105 103 102 102 103 102 101 101 101 101 102 102 104 105 107 109 110 107 94 62 38 93 96 97 96 102 102 102 101 101 101
121 122 125 124 122 120 119 117 115 113 112 111 109 107 105 104 104 104 103 104 104 105 104 103 104 107 107 108 104 90 54 21 98 92 90 93 100 104 103 103 103 102 102
123 124 126 127 126 124 123 121 118 117 116 116 115 112 110 108 106 106 105 105 105 105 106 106 107 110 108 108 100 55 11 355 101 103 98 99 106 106 107 107 107 105 105
125 128 134 134 131 128 127 125 124 122 122 121 119 117 115 114 112 110 108 108 108 108 108 111 114 114 116 118 108 352 347 23 93 109 106 105 110 110 110 110 110 109 109
129 136 138 140 139 139 134 133 131 129 129 128 127 127 125 123 122 121 115 111 114 114 114 118 120 123 128 138 174 307 340 11 105 102 102 113 117 115 115 115 114 112 111
135 139 141 142 150 147 142 138 140 137 136 138 139 143 146 144 135 136 114 120 121 123 123 127 131 135 145 166 208 265 301 114 95 96 102 119 122 121 120 118 117 115 114
141 145 143 147 155 151 143 143 152 148 150 160 147 162 175 137 127 119 127 130 132 135 141 150 149 159 187 185 195 221 245 131 110 105 116 128 128 127 126 124 121 120 119
148 150 144 151 158 148 139 157 156 145 157 162 159 169 160 132 129 127 142 144 152 162 172 158 176 199 205 204 184 180 144 99 101 106 125 131 133 134 133 130 127 129 129
156 152 148 151 154 143 146 156 153 148 162 155 161 171 145 141 138 141 147 160 165 173 178 175 184 181 170 160 150 114 107 95 96 108 132 133 135 138 138 138 138 140 138
159 154 146 148 148 140 136 162 155 145 157 147 156 173 149 144 139 132 139 150 164 154 159 179 117 96 78 65 67 80 86 103 117 118 128 142 139 140 144 149 150 150 150
165 157 147 152 143 139 143 164 138 140 140 142 156 157 162 139 128 126 132 139 139 127 130 129 122 114 106 95 85 86 92 102 118 129 137 147 151 153 156 158 161 162 162
167 156 151 153 149 156 160 176 153 147 148 146 146 147 160 136 135 142 146 163 134 112 110 104 112 127 132 133 119 105 96 94 116 125 138 148 157 165 167 168 169 171 173
164 154 160 164 157 165 168 183 162 156 147 147 145 146 163 144 155 161 159 154 144 135 147 125 157 116 96 118 110 103 113 118 126 133 146 156 162 166 176 180 179 180 182
159 156 164 162 158 167 169 177 174 149 144 150 146 149 164 158 163 173 149 140 160 150 154 164 119 109 128 110 131 131 141 146 154 163 152 156 158 159 166 179 185 186 189
159 159 164 161 159 164 168 175 179 163 157 160 152 153 158 164 171 181 160 162 177 156 142 104 104 97 130 191 186 142 166 160 166 164 174 160 163 169 169 168 177 193 197
162 163 168 168 162 165 172 179 180 171 174 173 168 156 163 173 173 197 170 154 178 155 151 152 148 168 213 170 123 112 205 184 174 180 182 166 169 166 157 161 174 175 181
169 170 172 173 169 175 175 178 176 166 176 181 174 156 170 177 175 189 174 167 169 153 162 166 156 182 218 180 166 140 166 306 257 203 178 178 167 161 168 173 168 176 175
176 176 178 177 174 180 170 175 176 160 177 179 168 169 180 179 184 192 171 179 169 179 171 185 176 192 209 208 201 183 161 191 223 245 208 164 158 164 177 168 175 181 182
178 178 177 178 177 181 175 182 180 180 186 185 174 176 180 182 183 186 176 179 177 185 165 193 190 191 201 222 218 215 199 159 170 172 246 173 178 180 188 188 172 173 176
179 179 179 180 182 180 182 184 184 188 189 180 177 172 176 182 187 187 182 176 179 195 184 198 169 197 203 224 227 210 200 177 205 182 198 188 190 189 189 185 170 174 176
179 179 181 179 181 180 185 187 191 191 188 182 182 175 179 181 191 192 186 179 184 195 189 184 184 199 225 250 265 260 202 192 206 203 198 194 195 199 188 179 180 178 176